小惑星2002 RP120

(65407) 2002 RP120

English version
Home page
Updated on February 20, 2004

---------------------------------------------------------------------

・ プロフィール

符号 2002 RP120
発見日 2002年9月4日
発見光度 16.8等
発見者 B. A. Skiff (Lowell Observatory-LONEOS)

・ 軌道要素

Epoch 2003 Dec. 27.0 TT = JDT 2453000.5                 MPC
M   1.04719              (2000.0)            P               Q
n   0.00234600     Peri.  358.01272     +0.76401816     +0.33408657
a  56.0940699      Node    39.18191     +0.60335282     -0.67302327
e   0.9559026      Incl.  119.11371     +0.22856429     +0.65986805
P 420              H   12.3           G   0.15           U   0
From 487 observations at 3 oppositions, 2001-2003, mean residual 0".45.

・ 星図

・ 光度変化

        H = 14.3  G = 0.15

---------------------------------------------------------------------

軌道要素はMPCのEphemerides and Orbital Elementsに掲載されたものです。
星図は StellaNavigator Ver.2.0 for Windows (アストロアーツ 編著 / アスキー出版局刊) で作成したものです。
光度グラフはComet for Windowsで作成したものです。

---------------------------------------------------------------------

Copyright(C) Seiichi Yoshida (comet@aerith.net). All rights reserved.